Wetterdaten: aktuell Mittwoch, 19.09.2018 20:36
Datum Zeit Temp. 2m 5cm . Boden Feuchte A. Luftdruck Regen Wind Richtung Richtung Sonnenschein Helligkeit Solar Taupunkt Windchill
19.09.2018 20:36 22,8 C 12,8 C 60 % 1016,9 hPa 0,0 l/m 0,0 km/h (0 Bft) S-SW22.5 195 0 min 0 lux 0 W/m 14,6 C 22,8 C
19.09.2018 20:31 22,8 C 12,8 C 60 % 1016,9 hPa 0,0 l/m 0,0 km/h (0 Bft) S22.5 175 0 min 0 lux 0 W/m 14,6 C 22,8 C
19.09.2018 20:25 23,3 C 12,8 C 60 % 1016,8 hPa 0,0 l/m 0,0 km/h (0 Bft) S22.5 175 0 min 0 lux 0 W/m 15,1 C 23,3 C
19.09.2018 20:21 23,4 C 12,8 C 60 % 1016,8 hPa 0,0 l/m 0,0 km/h (0 Bft) S45 175 0 min 0 lux 0 W/m 15,2 C 23,4 C
19.09.2018 20:16 23,1 C 12,8 C 60 % 1016,9 hPa 0,0 l/m 0,0 km/h (0 Bft) S 175 0 min 0 lux 0 W/m 14,9 C 23,1 C
19.09.2018 20:11 23,1 C 12,8 C 59 % 1016,9 hPa 0,0 l/m 0,0 km/h (0 Bft) S-SO 165 0 min 0 lux 0 W/m 14,6 C 23,1 C
19.09.2018 20:06 22,8 C 12,8 C 59 % 1016,9 hPa 0,0 l/m 0,0 km/h (0 Bft) S-SO 155 0 min 0 lux 0 W/m 14,4 C 22,8 C
19.09.2018 20:01 23,2 C 12,8 C 59 % 1016,9 hPa 0,0 l/m 0,0 km/h (0 Bft) S-SO 150 0 min 0 lux 0 W/m 14,7 C 23,2 C
19.09.2018 20:01 23,2 C 12,8 C 59 % 1016,9 hPa 0,0 l/m 0,0 km/h (0 Bft) S-SO 150 0 min 0 lux 0 W/m 14,7 C 23,2 C
19.09.2018 19:55 22,9 C 12,8 C 59 % 1016,9 hPa 0,0 l/m 0,0 km/h (0 Bft) S-SO 150 0 min 0 lux 0 W/m 14,5 C 22,9 C
19.09.2018 19:56 22,9 C 12,8 C 59 % 1016,9 hPa 0,0 l/m 0,0 km/h (0 Bft) S-SO 150 0 min 0 lux 0 W/m 14,5 C 22,9 C
19.09.2018 19:51 22,6 C 12,8 C 59 % 1016,9 hPa 0,0 l/m 0,0 km/h (0 Bft) S-SO 150 0 min 1 lux 0 W/m 14,2 C 22,6 C
19.09.2018 19:46 23,4 C 12,8 C 58 % 1016,8 hPa 0,0 l/m 0,0 km/h (0 Bft) S-SO 150 0 min 6 lux 0 W/m 14,7 C 23,4 C
19.09.2018 19:41 23,7 C 12,8 C 58 % 1016,8 hPa 0,0 l/m 0,0 km/h (0 Bft) S 170 0 min 17 lux 0 W/m 14,9 C 23,7 C
19.09.2018 19:36 23,6 C 12,8 C 58 % 1016,8 hPa 0,0 l/m 0,0 km/h (0 Bft) S 170 0 min 42 lux 0 W/m 14,8 C 23,6 C
19.09.2018 19:31 23,6 C 12,8 C 58 % 1016,8 hPa 0,0 l/m 0,0 km/h (0 Bft) S 170 0 min 65 lux 0 W/m 14,8 C 23,6 C
19.09.2018 19:30 23,6 C 12,8 C 58 % 1016,8 hPa 0,0 l/m 0,0 km/h (0 Bft) S 170 0 min 65 lux 0 W/m 14,8 C 23,6 C
19.09.2018 19:25 23,6 C 12,7 C 57 % 1016,8 hPa 0,0 l/m 0,0 km/h (0 Bft) S 170 0 min 210 lux 0 W/m 14,6 C 23,6 C
19.09.2018 19:26 23,6 C 12,7 C 57 % 1016,8 hPa 0,0 l/m 0,0 km/h (0 Bft) S 170 0 min 210 lux 0 W/m 14,6 C 23,6 C
_ Min-Zeit 04:00 11:31 17:06 00:06 - 00:00 - - - - - 04:00 04:00
Minimum _ 13,6 C 12,0 C 42 % 1014,8 hPa - 0,0 km/h (0 Bft) - - - - - 9,8 C 13,6 C
_ Max-Zeit 15:01 00:00 08:55 08:31 00:00 10:25 - - 11:21 11:36 11:36 12:51 15:01
Maximum _ 28,5 C 12,9 C 80 % 1019,0 hPa 0,0 l/m 6,7 km/h
W (2 Bft)
- - 6 min 70,9 klux 392 W/m 17,4 C 28,5 C
Durchschnitt _ 20,3 C 12,5 C 66 % 1016,6 hPa #0,0 l/m 0,0 km/h (0 Bft) W-SW - #6:55 h 18,2 klux 157 W/m 13,2 C 20,3 C
copyright (c) - www.lichtentanne-wetter.de